FLOCK 3K-9 (43906 NORAD) Tracking and Keplerian Element Data

This shows tracking and keplerian element data for the satellite.

Feedback or suggestion? Click here.




ElementValue
Catalog43906
NameFLOCK 3K-9
Epoch Orbit316
Epoch Day16.83298336
Epoch Year2019
RAAN286.1774
Inclination97.2996
Eccentricity0.0022578
Argument of Perigee167.1807
Mean Anonmoly193.001
Mean Motion15.23837814
Decay Rate1.173E-05
L11 43906U 18111AG 19016.83298336 .00001173 00000-0 51242-4 0 9993
L22 43906 97.2996 286.1774 0022578 167.1807 193.0010 15.23837814 3161

Live tracking and technical data element details for FLOCK 3K-9 (NORAD 43906). FLOCK 3K-9 can be tracked NOW for your location showing map with azimuth and elevation plus other details from your city location.

Track the satellite on the map from your city or location and see movement details for azimuth, elevation, latitude, longitude, range, height, and movement on the map or in text.







IsCatalogInMostPopularTable: catalog: 43906, numindb: 18
Update: records affected: 1



GetName: 43906 FLOCK 3K-9

Hit Count: updated at: Thu, 17 Jan 2019 15:40:54 GMT